Regional Weather Roundup
Issued by NWS

Home |  Current Version |  Previous Version |  Text Only |  Print | Product List |  Glossary On
Versions: 1 2 3 4 5 6 7 8 9 10 11 12 13 14 15 16 17 18 19 20 21 22 23 24 25 26 27 28 29 30 31 32 33 34 35 36 37 38 39 40 41 42 43 44 45 46 47 48 49 50
042
ASUS43 KDTX 210610
RWRMI
MICHIGAN HOURLY REGIONAL WEATHER ROUNDUP
NATIONAL WEATHER SERVICE DETROIT/PONTIAC MI
200 AM EDT SUN JUL 21 2024

NOTE: "FAIR" INDICATES FEW OR NO CLOUDS BELOW 12,000 FEET WITH NO
SIGNIFICANT WEATHER AND/OR OBSTRUCTION TO VISIBILITY.

MIZ047>049-052>055-059>063-066>070-074>076-081>083-210700-
SOUTHEAST LOWER MICHIGAN

CITY           SKY/WX    TMP DP  RH WIND       PRES   REMARKS
ADRIAN         PTCLDY    62  58  86 CALM      30.12S TC  17
6HR MIN TEMP:  62; 6HR MAX TEMP:  77;

ALMA           CLEAR     63  59  88 E2        30.10R TC  17
6HR MIN TEMP:  62; 6HR MAX TEMP:  77;

ANN ARBOR      PTCLDY    57  57 100 CALM      30.10S FOG     TC  14
BAD AXE        CLEAR     64  61  90 CALM      30.06S TC  18
6HR MIN TEMP:  64; 6HR MAX TEMP:  75;

CARO           CLEAR     64  63  98 CALM      30.08S TC  18
DETROIT CITY   PTCLDY    72  57  59 W3        30.08F TC  22
6HR MIN TEMP:  72; 6HR MAX TEMP:  81;

DETROIT        PTCLDY    67  58  72 W5        30.10R TC  19
6HR MIN TEMP:  66; 6HR MAX TEMP:  76;

FLINT          CLEAR     65  60  84 SW3       30.09F TC  18
6HR MIN TEMP:  65; 6HR MAX TEMP:  78;

GROSSE ILE     PTCLDY    65  53  65 W5        30.09R TC  19
6HR MIN TEMP:  65; 6HR MAX TEMP:  76;

HILLSDALE      PTCLDY    61  59  94 N1        30.12S TC  16
6HR MIN TEMP:  61; 6HR MAX TEMP:  74;

HOWELL         PTCLDY    63  60  90 SW3       30.10S TC  17
6HR MIN TEMP:  63; 6HR MAX TEMP:  76;


CITY           SKY/WX    TMP DP  RH WIND       PRES   REMARKS
JACKSON        PTCLDY    60  59  96 SW3       30.12S FOG     TC  16
6HR MIN TEMP:  60; 6HR MAX TEMP:  75;

LAMBERTVILLE   PTCLDY    61  58  89 CALM      30.10S TC  16
6HR MIN TEMP:  61; 6HR MAX TEMP:  76;

LANSING        PTCLDY    64  60  87 W3        30.11S TC  18
6HR MIN TEMP:  63; 6HR MAX TEMP:  77;

LAPEER         CLEAR     65  64  97 CALM      30.09F TC  19
6HR MIN TEMP:  65; 6HR MAX TEMP:  80;

MASON          PTCLDY    60  57  91 CALM      30.11S TC  16
6HR MIN TEMP:  59; 6HR MAX TEMP:  75;

MONROE         CLEAR     60  57  92 CALM      30.09S TC  15
6HR MIN TEMP:  58; 6HR MAX TEMP:  74;

MT. CLEMENS    PTCLDY    66  60  82 W3        30.04F HAZE    TC  19
6HR MIN TEMP:  66; 6HR MAX TEMP:  76;

PONTIAC        PTCLDY    68  59  73 NW5       30.09S TC  20
6HR MIN TEMP:  67; 6HR MAX TEMP:  76;

PORT HOPE        N/A     69  61  75 W7        30.04S TC  21
6HR MIN TEMP:  69; 6HR MAX TEMP:  79;

PORT HURON     MOCLDY    61  59  94 CALM      30.08S TC  16
TRI CITIES     CLEAR     67  61  81 W8        30.09S TC  19
6HR MIN TEMP:  67; 6HR MAX TEMP:  79;

MIDLAND        CLEAR     64  61  88 NW1       30.08S TC  18
6HR MIN TEMP:  64; 6HR MAX TEMP:  81;

TROY           PTCLDY    68  59  72 W3        30.10F TC  20
SAGINAW HB     PTCLDY    68  61  77 W8        30.07S TC  20
6HR MIN TEMP:  68; 6HR MAX TEMP:  79;

$$
MIZ043>046-050>051-056>058-064>065-071>073-077>080-210700-
SOUTHWEST LOWER MICHIGAN

CITY           SKY/WX    TMP DP  RH WIND       PRES   REMARKS
BATTLE CREEK   PTCLDY    65  56  72 CALM      30.12S TC  18
6HR MIN TEMP:  64; 6HR MAX TEMP:  77;

BENTON HARBOR  PTCLDY    60  57  89 CALM      30.12R FOG     TC  16
6HR MIN TEMP:  61; 6HR MAX TEMP:  75;

BIG RAPIDS     CLEAR     61  59  91 CALM      30.11S TC  16
6HR MIN TEMP:  61; 6HR MAX TEMP:  79;

COLDWATER      PTCLDY    62  61  97 CALM      30.13S TC  17
6HR MIN TEMP:  62; 6HR MAX TEMP:  78;

FREMONT        CLEAR     60  58  94 CALM      30.11S TC  15
6HR MIN TEMP:  59; 6HR MAX TEMP:  75;

HOLLAND        PTCLDY    59  58  96 CALM      30.11S TC  15
6HR MIN TEMP:  59; 6HR MAX TEMP:  75;

GRAND RAPIDS   PTCLDY    63  59  87 SW3       30.11F TC  17
6HR MIN TEMP:  63; 6HR MAX TEMP:  75;

IONIA          PTCLDY    65  62  90 W3        30.11S TC  18
6HR MIN TEMP:  64; 6HR MAX TEMP:  76;

KALAMAZOO      PTCLDY    63  57  81 CALM      30.12S TC  17
6HR MIN TEMP:  61; 6HR MAX TEMP:  77; 6HR PCP: TRACE;

LUDINGTON      CLOUDY    71  63  75 W5        30.08F TC  22
6HR MIN TEMP:  69; 6HR MAX TEMP:  73;

MARSHALL       PTCLDY    60  57  92 CALM      30.12S TC  15
6HR MIN TEMP:  60; 6HR MAX TEMP:  73;

MOUNT PLEASANT CLEAR     66  61  82 CALM      30.09S TC  19
6HR MIN TEMP:  66; 6HR MAX TEMP:  79;

MUSKEGON       CLEAR     64  61  90 CALM      30.11S TC  18
6HR MIN TEMP:  64; 6HR MAX TEMP:  74;

SOUTH HAVEN    PTCLDY    59  58  97 CALM      30.12R TC  15
$$
MIZ016>042-210700-
NORTHERN LOWER MICHIGAN

CITY           SKY/WX    TMP DP  RH WIND       PRES   REMARKS
ALPENA         PTCLDY    67  62  84 CALM      30.07S TC  19
6HR MIN TEMP:  67; 6HR MAX TEMP:  76; 6HR PCP: TRACE;

BEAVER ISLAND  PTCLDY    62  55  77 CALM      30.10S TC  17
6HR MIN TEMP:  62; 6HR MAX TEMP:  71;

BELLAIRE       MOCLDY    65  61  88 CALM      30.09S TC  18
6HR MIN TEMP:  64; 6HR MAX TEMP:  74;

CADILLAC       CLOUDY    66  59  77 W2        30.11S TC  19
6HR MIN TEMP:  65; 6HR MAX TEMP:  75;

CHARLEVOIX     MOCLDY    68  60  73 N6        30.10R TC  20
6HR MIN TEMP:  68; 6HR MAX TEMP:  73;

CHEBOYGAN      CLEAR     63  59  88 CALM      30.08S TC  17
FRANKFORT      PTCLDY    67  63  87 CALM      30.09S TC  20
GAYLORD        CLOUDY    68  60  75 NW3       30.11S TC  20
6HR MIN TEMP:  68; 6HR MAX TEMP:  76;

GRAYLING       MOCLDY    67  60  79 NW3       30.09S TC  19
6HR MIN TEMP:  67; 6HR MAX TEMP:  76;

HARBOR SPRINGS MOCLDY    67  61  81 N5        30.08F TC  19
MANISTEE       MOCLDY    63  63 100 E3        30.08F TC  17
OSCODA         PTCLDY    66  60  80 NW6       30.06S TC  19
6HR MIN TEMP:  66; 6HR MAX TEMP:  77;

PELLSTON       CLEAR     61  59  93 CALM      30.09F TC  16
6HR MIN TEMP:  61; 6HR MAX TEMP:  74;

ROGERS CITY    MOCLDY    65  62  89 NW3       30.09S TC  18
TRAVERSE CITY  CLOUDY    72  60  66 W5        30.07S TC  22
6HR MIN TEMP:  71; 6HR MAX TEMP:  80;

$$
MIZ007>008-015-210700-
EASTERN UPPER MICHIGAN

CITY           SKY/WX    TMP DP  RH WIND       PRES   REMARKS
KINROSS        PTCLDY    59  55  87 N6        30.10R TC  15
6HR MIN TEMP:  59; 6HR MAX TEMP:  71;

MACKINAC ISLAN CLEAR     61  59  92 N8        30.08S TC  16
6HR MIN TEMP:  61; 6HR MAX TEMP:  71;

NEWBERRY       PTCLDY    58  49  73 NW8       30.11S TC  15
6HR MIN TEMP:  58; 6HR MAX TEMP:  72;

S. S. MARIE    PTCLDY    62  56  80 NE5       30.09S TC  17
6HR MIN TEMP:  57; 6HR MAX TEMP:  72;

$$
MIZ004>006-011>014-085-210700-
CENTRAL UPPER MICHIGAN

CITY           SKY/WX    TMP DP  RH WIND       PRES   REMARKS
MANISTIQUE     PTCLDY    55  52  90 N6        30.11S TC  13
6HR MIN TEMP:  55; 6HR MAX TEMP:  74;

ESCANABA       MOCLDY    61  56  83 NW6       30.12S TC  16
6HR MIN TEMP:  61; 6HR MAX TEMP:  74;

MENOMINEE      CLOUDY    65  63  93 N5        30.13R TC  18
6HR MIN TEMP:  65; 6HR MAX TEMP:  70;

MUNISING         N/A     53  51  93 S6        30.13S TC  12
6HR MIN TEMP:  53; 6HR MAX TEMP:  66;

$$
MIZ001>003-009>011-084-210700-
WESTERN UPPER MICHIGAN

CITY           SKY/WX    TMP DP  RH WIND       PRES   REMARKS
IRON MOUNTAIN  PTCLDY    63  60  90 N3        30.13S TC  17
6HR MIN TEMP:  63; 6HR MAX TEMP:  73;

HOUGHTON       PTCLDY    56  48  74 N7        30.16R TC  13
6HR MIN TEMP:  53; 6HR MAX TEMP:  68;

COPPER HARBOR    N/A     55  51  86 W6        30.15R TC  13
6HR MIN TEMP:  55; 6HR MAX TEMP:  71;

IRONWOOD       MOCLDY    60  58  92 E3        30.17S TC  16
6HR MIN TEMP:  60; 6HR MAX TEMP:  72;

$$

ABBREVIATIONS USED IN REMARKS
   TC - TEMPERATURE IN CELSIUS
  WCI - WIND CHILL INDEX
   HX - HEAT INDEX
  VSB - VISIBILITY